This is the latest recevied weather packets stored in our database for station/object KE8WMS. If no packets are shown the sender has not sent any weather packets the latest 10 day(s).
| Time | Temp. | Humidity | Pressure | Rain* | Wind** | Luminosity | Snow |
|---|---|---|---|---|---|---|---|
| 1778075782 | 8.89° C | 97% | 1007.5 hPa | 0 mm | - | 191 W/m² | - |
| 1778075478 | 8.89° C | 98% | 1007.5 hPa | 0 mm | - | 200 W/m² | - |
| 1778075175 | 8.89° C | 99% | 1007.5 hPa | 0 mm | - | 195 W/m² | - |
| 1778074870 | 8.89° C | 99% | 1007.7 hPa | 0 mm | - | 173 W/m² | - |
| 1778074568 | 8.89° C | 99% | 1007.3 hPa | 0 mm | - | 168 W/m² | - |
| 1778074265 | 8.89° C | 99% | 1007.3 hPa | 0 mm | - | 167 W/m² | - |
| 1778073962 | 8.33° C | 99% | 1007.3 hPa | 0 mm | - | 164 W/m² | - |
| 1778073659 | 8.33° C | 99% | 1007.1 hPa | 0 mm | - | 166 W/m² | - |
| 1778073356 | 7.78° C | 99% | 1007.1 hPa | 0 mm | - | 143 W/m² | - |
| 1778073052 | 7.78° C | 99% | 1006.9 hPa | 0 mm | - | 115 W/m² | - |
| 1778072749 | 7.78° C | 99% | 1006.9 hPa | 0 mm | - | 86 W/m² | - |
| 1778072447 | 7.78° C | 99% | 1006.8 hPa | 0 mm | - | 113 W/m² | - |
| 1778072145 | 7.78° C | 99% | 1006.6 hPa | 0 mm | - | 95 W/m² | - |
| 1778071843 | 7.78° C | 99% | 1006.5 hPa | 0 mm | - | 105 W/m² | - |
| 1778071540 | 7.78° C | 99% | 1006.5 hPa | 0 mm | - | 117 W/m² | - |
| 1778071238 | 7.78° C | 99% | 1006.6 hPa | 0 mm | - | 58 W/m² | - |
| 1778070935 | 7.78° C | 99% | 1006.2 hPa | 0 mm | - | 78 W/m² | - |
| 1778070634 | 7.78° C | 99% | 1006.3 hPa | 0 mm | - | 55 W/m² | - |
| 1778070330 | 7.78° C | 99% | 1006.1 hPa | 0 mm | - | 71 W/m² | - |
| 1778070028 | 7.78° C | 99% | 1006.2 hPa | 0 mm | - | 38 W/m² | - |
| 1778069726 | 7.78° C | 99% | 1006.3 hPa | 0 mm | - | 34 W/m² | - |
| 1778069421 | 7.78° C | 99% | 1006.4 hPa | 0 mm | - | 27 W/m² | - |
| 1778069120 | 7.78° C | 99% | 1006.3 hPa | 0 mm | - | 22 W/m² | - |
| 1778068817 | 7.78° C | 99% | 1006.6 hPa | 0 mm | - | 26 W/m² | - |
| 1778068515 | 7.78° C | 99% | 1006.1 hPa | 0 mm | - | 30 W/m² | - |
* Rain latest hour (hover to see other rain measurements)
** Current wind speed in m/s (hover to see current wind gust speed)